ISARA (43050 NORAD) Tracking and Keplerian Element Data

This shows tracking and keplerian element data for the satellite.

Feedback or suggestion? Click here.




ElementValue
Catalog43050
NameISARA
Epoch Orbit23783
Epoch Day49.68329955
Epoch Year2022
RAAN226.6971
Inclination51.6069
Eccentricity0.0007833
Argument of Perigee281.4911
Mean Anonmoly78.5235
Mean Motion16.38724404
Decay Rate0.1012731
L11 43050U 17071P 22049.68329955 .10127310 12389-4 84600-3 0 9995
L22 43050 51.6069 226.6971 0007833 281.4911 78.5235 16.38724404237833

Live tracking and technical data element details for ISARA (NORAD 43050). ISARA can be tracked NOW for your location showing map with azimuth and elevation plus other details from your city location.

Track the satellite on the map from your city or location and see movement details for azimuth, elevation, latitude, longitude, range, height, and movement on the map or in text.







IsCatalogInMostPopularTable: catalog: 43050, numindb: 613
Update: records affected: 1



GetName: 43050 ISARA

Hit Count: updated at: Fri, 30 Sep 2022 03:01:06 GMT